Location: Unspecified
(0.0000°N, 0.0000°E)
Time: 00:29:21
(UTC+00:00)

deb Delta 104 - Pass Details

Date: 15 March 2026
Orbit: 1430 x 1579 km, 102.3° (Epoch: 12 April)

Event Time Altitude Azimuth Distance (km) Brightness Sun altitude
Rises 03:56:56 0° 39° (NE) 4,755 ? -33.0°
Reaches altitude 10° 04:00:16 10° 48° (NE) 3,768 ? -32.2°
Maximum altitude 04:07:48 32° 107° (ESE) 2,452 ? -30.3°
Drops below altitude 10° 04:15:13 10° 165° (SSE) 3,716 ? -28.4°
Sets 04:18:25 0° 175° (S) 4,680 ? -27.6°
